AirNav   Air Wisconsin Up To $57,000 Bonus
 
 467 users online  

II77 Finney's Airpark
Albany, Indiana, USA

GOING TO ALBANY?


FAA INFORMATION EFFECTIVE 25 MARCH 2021

Location

FAA Identifier: II77
Lat/Long: 40-15-34.1530N 085-15-37.8920W
40-15.569217N 085-15.631533W
40.2594869,-85.2605256
(estimated)
Elevation: 965 ft. / 294 m (estimated)
Variation: 03W (1990)
From city: 3 miles SW of ALBANY, IN
Time zone: UTC -4 (UTC -5 during Standard Time)
Zip code: 47320

Airport Operations

Airport use: Private use. Permission required prior to landing
Activation date: 08/1994
Control tower: no
ARTCC: INDIANAPOLIS CENTER
FSS: TERRE HAUTE FLIGHT SERVICE STATION
Attendance: IREG
Segmented circle: no

Airport Communications

WX ASOS at MIE (6 nm W): 114.4 (765-288-9617)
WX AWOS-3 at PLD (17 nm NE): 124.675 (260-726-7882)
WX AWOS-3 at AID (19 nm SW): 128.55 (765-442-1245)

Nearby radio navigation aids

VOR radial/distance  VOR name  Freq  Var
MIEr081/6.3MUNCIE VOR/DME114.4003W
MZZr129/23.7MARION VOR/DME108.6003W
OKKr119/39.8KOKOMO VORTAC113.5005W

 
NDB name  Hdg/Dist  Freq  Var  ID
BALLL033/5.536503WJN .--- -.
NEW CASTLE013/22.938506WUWL ..- .-- .-..

Airport Services

Runway Information

Runway 9/27

Dimensions: 1900 x 100 ft. / 579 x 30 m
Surface: turf
RUNWAY 9  RUNWAY 27
Traffic pattern: leftleft
Obstructions: 25 ft. pline, 800 ft. from runway25 ft. pline, 1300 ft. from runway

Airport Ownership and Management from official FAA records

Ownership: Privately-owned
Owner: MICHAEL E. FINNEY
7600 N COUNTY ROAD 650E
ALBANY, IN 47320
Phone 765-789-6789
Manager: MICHAEL E. FINNEY
7600 N COUNTY ROAD 650E
ALBANY, IN 47320
Phone 765-789-6789

Airport Operational Statistics

Aircraft based on the field: 3
Single engine airplanes: 3
    

Additional Remarks

FOR CD CTC INDIANAPOLIS APCH AT 317-227-5743.

Instrument Procedures

There are no published instrument procedures at II77.

Some nearby airports with instrument procedures:

KMIE - Delaware County Regional Airport (6 nm W)
I22 - Randolph County Airport (16 nm E)
KPLD - Portland Municipal Airport (17 nm NE)
KAID - Anderson Municipal Airport-Darlington Field (19 nm SW)
KUWL - New Castle Henry County Airport / Marlatt Field (23 nm S)
 
Loc | Ops | Rwys | IFR | FBO | Links
Com | Nav | Svcs | Stats | Notes
Area around II77 (Finney's Airpark)
 
Road maps at: MapQuest Bing Google
 
Aerial photo
WARNING: Photo may not be current or correct
Aerial photo of II77 (Finney's Airpark)
Do you have a better or more recent aerial photo of Finney's Airpark that you would like to share? If so, please send us your photo.

 
Sectional chart

 
Airport distance calculator
Flying to Finney's Airpark? Find the distance to fly.

From to II77

Sunrise and sunset
Times for 19-Apr-2021
 Local
(UTC-4)
 Zulu
(UTC)
Morning civil twilight06:2910:29
Sunrise06:5810:58
Sunset20:2300:23
Evening civil twilight20:5100:51

Current date and time
Zulu (UTC)  19-Apr-2021 09:52:08
Local (UTC-4)  19-Apr-2021 05:52:08
 
METAR
KMIE 
7nm W 
190853Z AUTO 24006KT 10SM FEW095 09/04 A2987 RMK AO2 SLP110 T00890039 55006
KPLD 
17nm NE 
190935Z AUTO 22004KT 10SM BKN095 06/00 A2986 RMK AO2
KAID 
18nm SW 
190935Z AUTO 00000KT 10SM CLR 08/04 A2988 RMK AO2 T00750042
TAF
KFWA 
43nm N 
190520Z 1906/2006 22008KT P6SM SCT110 FM191500 25012G20KT P6SM SCT080 FM191900 28012G20KT P6SM BKN035 FM192300 30010KT P6SM VCSH OVC025
KGUS 
46nm NW 
182100Z 1821/2003 VRB06KT 9999 BKN080 QNH2984INS BECMG 1916/1917 25015G25KT 9999 BKN050 BKN100 510013 QNH2980INS BECMG 1923/1924 27012G20KT 9999 BKN030 510013 QNH2986INS BECMG 2000/2001 33012KT 9999 OVC020 QNH2991INS BECMG 2002/2003 33012KT 9000 -RA SCT009 OVC020 QNH2996INS TX18/1920Z TN04/1913Z LAST NO AMDS AFT 1903 NEXT 1913
NOTAMs
Click for the latest NOTAMs
NOTAMs are issued by the DoD/FAA and will open in a separate window not controlled by AirNav.

 

 
 

Would you like to see your business listed on this page?

 If your business provides an interesting product or service to pilots, flight crews, aircraft, or users of the Finney's Airpark, you should consider listing it here.  To start the listing process, click on the button below
 
Add a business
 

Other Pages about Finney's Airpark

Update a link
 
Copyright © AirNav, LLC. All rights reserved. Privacy Policy  Contact